Location: Unspecified
(0.0000°N, 0.0000°E)
Time: 07:15:44
(UTC+00:00)

Vanguard 3 - Visible Passes

Search period start: 13 April 2024 00:00
Search period end: 23 April 2024 00:00
Orbit: 510 x 3236 km, 33.3° (Epoch: 12 April)

Date Brightness Start Highest point End Pass type
(mag) Time Alt. Az. Time Alt. Az. Time Alt. Az.
13 Apr 10.7 01:26:58 22° E 01:26:58 22° E 01:30:01 10° ENE visible
13 Apr 9.1 03:31:15 63° WNW 03:32:24 65° NW 03:42:19 10° NE visible
13 Apr 10.0 05:39:09 10° WNW 05:45:13 15° NW 05:49:52 10° N visible
13 Apr 11.0 19:06:12 10° SW 19:12:56 15° S 19:21:08 10° SSE visible
13 Apr 11.1 21:23:27 10° SSW 21:30:18 17° S 21:30:18 17° S visible
14 Apr11.600:13:59E00:13:59E23:34:32SWvisible
14 Apr 9.7 02:18:15 49° ENE 02:18:15 49° ENE 02:25:14 10° ENE visible
14 Apr 9.6 04:22:31 28° WNW 04:27:04 34° NW 04:35:25 10° NNE visible
14 Apr 11.1 20:04:13 10° SSW 20:11:57 15° S 20:16:48 13° SSE visible
14 Apr 11.3 22:18:40 10° SSW 22:21:02 14° SSW 22:21:02 14° SSW visible
15 Apr 10.9 01:05:11 16° ENE 01:05:11 16° ENE 01:06:56 10° ENE visible
15 Apr 9.3 03:09:27 60° NNW 03:09:27 60° NNW 03:19:17 10° NE visible
15 Apr 10.2 05:15:09 10° WNW 05:21:51 16° NW 05:27:01 10° N visible
15 Apr 11.0 18:44:44 10° SSW 18:49:44 13° S 18:55:35 10° SSE visible
15 Apr 11.0 20:59:57 10° SSW 21:07:33 18° S 21:07:33 18° S visible
16 Apr 10.1 01:56:18 38° NE 01:56:18 38° NE 02:02:06 10° NE visible
16 Apr 9.8 04:00:33 31° WNW 04:03:19 33° NW 04:12:24 10° NNE visible
16 Apr 11.0 19:41:45 10° SSW 19:48:33 14° SSE 19:54:06 12° SSE visible
16 Apr 11.1 21:54:34 10° SSW 21:58:20 17° SSW 21:58:20 17° SSW visible
17 Apr 11.1 00:43:04 12° ENE 00:43:04 12° ENE 00:43:40 10° ENE visible
17 Apr 9.7 02:47:19 51° N 02:47:19 51° N 02:56:08 10° NE visible
17 Apr 10.3 04:51:34 11° WNW 04:58:25 16° NW 05:04:07 10° N visible
17 Apr 10.9 18:24:16 10° S 18:26:35 11° S 18:29:04 10° SSE visible
17 Apr 10.9 20:36:28 10° SSW 20:44:53 19° SSE 20:44:53 19° SSE visible
17 Apr 11.4 22:49:04 10° SW 22:49:07 10° SW 22:49:07 10° SW visible
18 Apr 10.4 01:34:00 30° NE 01:34:00 30° NE 01:38:47 10° NE visible
18 Apr 10.0 03:38:14 32° NW 03:39:25 32° NW 03:49:16 10° NNE visible
18 Apr 10.9 19:19:21 10° S 19:25:09 13° SSE 19:31:28 10° SE visible
18 Apr 10.9 21:30:35 10° SSW 21:35:43 20° SSW 21:35:43 20° SSW visible
19 Apr11.300:20:36ENE00:20:36ENE23:39:57SWvisible
19 Apr 10.0 02:24:50 43° N 02:24:50 43° N 02:32:50 10° NE visible
19 Apr 10.5 04:29:04 13° WNW 04:34:55 16° NW 04:41:10 10° N visible
19 Apr 10.8 20:13:02 10° SSW 20:22:20 20° SSE 20:22:20 20° SSE visible
19 Apr 11.2 22:24:49 10° SW 22:26:35 14° SSW 22:26:35 14° SSW visible
20 Apr 10.7 01:11:22 25° NE 01:11:22 25° NE 01:15:17 10° NE visible
20 Apr 10.2 03:15:35 32° NW 03:15:35 32° NW 03:26:02 10° NNE visible
20 Apr 10.9 18:57:02 10° S 19:01:45 12° SSE 19:07:06 10° SE visible
20 Apr 10.7 21:06:43 10° SSW 21:13:15 24° S 21:13:15 24° S visible
20 Apr11.523:57:49ENE23:57:49ENE23:17:31SWvisible
21 Apr 10.3 02:02:02 37° NNE 02:02:02 37° NNE 02:09:22 10° NE visible
21 Apr 10.6 04:06:15 14° NW 04:11:19 16° NNW 04:18:08 10° N visible
21 Apr 10.7 19:49:38 10° SSW 19:59:37 20° SSE 20:00:00 20° SSE visible
21 Apr 11.0 22:00:43 10° SW 22:04:15 20° SSW 22:04:15 20° SSW visible
22 Apr 10.9 00:48:23 21° NE 00:48:23 21° NE 00:51:36 10° NE visible
22 Apr 10.4 02:52:37 30° NNW 02:52:37 30° NNW 03:02:40 10° NNE visible
22 Apr 10.8 18:34:52 10° S 18:38:21 11° SSE 18:42:14 10° SE visible
22 Apr 10.5 20:42:57 10° SSW 20:51:03 29° S 20:51:03 29° S visible
22 Apr 11.4 23:34:40 - ENE 23:34:40 - ENE 22:55:19 10° SW visible
